Regional Weather Roundup
Issued by NWS Grand Forks, ND

Home | Current Version | Previous Version | Graphics & Text | Print | Product List | Glossary On
Versions: 1 2 3 4 5 6 7 8 9 10 11 12 13 14 15 16 17 18 19 20 21 22 23 24 25 26 27 28 29 30 31 32 33 34 35 36 37 38 39 40 41 42 43 44 45 46 47 48 49 50
000
ASUS43 KFGF 251710
RWRFGF
PRAIRIE TO PINES  WEATHER ROUNDUP
NATIONAL WEATHER SERVICE EASTERN NORTH DAKOTA/GRAND FORKS ND
1100 AM CST THU DEC 25 2014

 **SATELLITE DATA USED TO AUGMENT SKY COVER AT AUTOMATED STATIONS**
 *****  WEATHER ACROSS EASTERN NORTH DAKOTA  *****

CITY           SKY/WX    TMP DP  RH WIND       PRES   REMARKS
GRAND FORKS    CLOUDY    28  24  85 NW8       29.72R WCI  20
GRAND FRKS AFB CLOUDY    28  27  99 NW7       29.73R WCI  20
GRAND FRKS NWS   N/A     28 N/A N/A NW7         N/A  WCI  21
DEVILS LAKE    CLOUDY    25  21  86 NW8       29.72R WCI  16
FARGO          CLOUDY    29  24  82 NW12      29.74R WCI  19
WAHPETON ARPT  CLOUDY    28  25  86 N7        29.75R WCI  21
$$

 ***** WEATHER ACROSS CENTRAL AND WESTERN NORTH DAKOTA  *****

CITY           SKY/WX    TMP DP  RH WIND       PRES   REMARKS
BISMARCK       CLOUDY    29  24  82 W5        29.78R WCI  24
MINOT          CLOUDY    26  21  81 NW13      29.77R WCI  15
JAMESTOWN      CLOUDY    24  20  84 N14       29.75R WCI  12
MINOT AFB      MIX PCPN  26  26  99 NW15      29.78R WCI  14
GARRISON         N/A     26  22  84 NW20      29.77R WCI  12
WILLISTON      CLOUDY    26  21  81 NW14      29.84R WCI  14
DICKINSON      CLOUDY    27  23  86 NW13      29.76R WCI  16
HETTINGER      CLOUDY    26  22  84 N13       29.78R WCI  15
$$

 *****  OTHER AIRPORT OBSERVATIONS IN OUR AREA  *****

CITY           SKY/WX    TMP DP  RH WIND       PRES   REMARKS
WALHALLA         N/A     27  27 100 NW14      29.74R WCI  15
GRAFTON AIRPOR NOT AVBL
VALLEY CITY AR MIX PCPN  25  25 100 N12       29.74R WCI  14
CANDO          CLOUDY    27  25  93 NW10      29.74R WCI  17
CAVALIER APRT  CLOUDY    27  23  86 NW15      29.74R WCI  15
GWINNER        CLOUDY    27  27 100 CALM      29.76R
SHEYENNE NWR     N/A     27  24  89 NW7       29.95S WCI  19
ROLLA          CLOUDY    25  25 100 N13       29.73R WCI  13
 ***** THE ABOVE OBSERVATIONS ARE NON NWS ARE NOT QUALITY
       CONTROLLED AND MAY MIS-REPORT RAIN FOR SNOW...
$$

  *****  WEATHER ACROSS NORTHERN MINNESOTA  *****

CITY           SKY/WX    TMP DP  RH WIND       PRES   REMARKS
FLAG ISLAND    CLOUDY    27  25  93 W15       29.63R WCI  15
WARROAD        CLOUDY    28  23  80 W8        29.67R WCI  20
ROSEAU         CLOUDY    28  23  80 W8        29.68R WCI  20
HALLOCK        CLOUDY    27  23  86 NW13      29.72R WCI  16
THF RVR FALLS  CLOUDY    28  25  86 NW12      29.69R WCI  18
BAUDETTE       CLOUDY    30  25  81 W8        29.63R WCI  22
WASKISH        CLOUDY    30  28  93 CALM      29.66R
CROOKSTON      PTSUNNY   28  25  86 NW12      29.73R WCI  18
STEPHEN NDAWN    N/A     27  25  93 NW12        N/A  WCI  16
GREENBUSH NDAW   N/A     27  25  93 W12         N/A  WCI  16
$$
  *****  WEATHER ACROSS CENTRAL AND WEST MINNESOTA  *****

CITY           SKY/WX    TMP DP  RH WIND       PRES   REMARKS
FOSSTON        CLOUDY    27  25  93 W7        29.69R WCI  19
BEMIDJI        CLOUDY    29  26  86 W8        29.66R WCI  21
PARK RAPIDS    CLOUDY    29  25  85 NW9       29.68R WCI  20
ELBOW LAKE     CLOUDY    27  26  96 NW8       29.71R WCI  18
WADENA         CLOUDY    28  27  93 NW6       29.69R WCI  22
DETROIT LAKES  CLOUDY    30  28  93 NW5       29.71R
MOORHEAD       CLOUDY    28  28 100 NW12      29.75R WCI  18
FERGUS FALLS   CLOUDY    27  25  93 N9        29.75R WCI  17
MORRIS MN      CLOUDY    30  28  93 N9        29.70R WCI  22
STAPLES        CLOUDY    30  28  93 W7        29.69R WCI  23
$$
  *****  WEATHER ELSEWHERE ACROSS MINNESOTA  *****

CITY           SKY/WX    TMP DP  RH WIND       PRES   REMARKS
DULUTH         CLOUDY    31  27  85 W12       29.65R WCI  22
INTRNTL FALLS  CLOUDY    30  27  88 W9        29.63R WCI  22
ELY            CLOUDY    30  27  86 W6        29.62R WCI  24
CLOQUET        CLOUDY    30  27  86 SW8       29.67R WCI  23
WHEATON        PTSUNNY   27  25  93 N10       29.75R WCI  17
BRAINERD       CLOUDY    31  27  85 W7        29.69R WCI  24
HIBBING        CLOUDY    32  26  78 W6        29.64R
ALEXANDRIA     CLOUDY    30  27  88 W6        29.70R WCI  24
SAINT CLOUD    CLOUDY    34  28  79 SW7       29.71R
MINNEAPOLIS    CLOUDY    33  27  78 S8        29.74R
$$

  *****  WEATHER ACROSS SOUTH DAKOTA  *****

CITY           SKY/WX    TMP DP  RH WIND       PRES   REMARKS
SIOUX FALLS    PTSUNNY   32  27  81 NE10      29.65S WCI  24
BROOKINGS      NOT AVBL
WATERTOWN      LGT SNOW  31  28  89 NE6       29.68R FOG
HURON          LGT SNOW  30  28  92 N10       29.70R FOG     WCI  21
SISSETON         N/A     28  24  85 N15       29.72R WCI  16
ABERDEEN       CLOUDY    29  24  82 N12       29.75R WCI  19
MITCHELL       CLOUDY    32  28  85 N8        29.69R WCI  25
PIERRE         LGT SNOW  31  29  92 N13       29.72R FOG     WCI  21
MOBRIDGE       CLOUDY    30  24  78 N15       29.74R WCI  19
RAPID CITY     LGT SNOW  29  26  89 N25       29.70R BLWGSNOWWCI  14
$$

  *****  SOME WEATHER IN NEARBY STATES *****

CITY           SKY/WX    TMP DP  RH WIND       PRES   REMARKS
GLASGOW MT     CLOUDY    24  16  71 N15       29.91R WCI  11
GREAT FALLS MT CLOUDY    24  20  84 CALM      29.92R
CHEYENNE WY    LGT SNOW  31  28  89 NE7       29.51R FOG     WCI  24
SCOTTSBLUFF NE LGT SNOW  30  27  88 NE18G25   29.57R VSB 3/4 WCI  18
OMAHA NE       MOSUNNY   38  29  70 S20       29.69F
DES MOINES IA  PTSUNNY   41  30  65 S14       29.77S
DAVENPORT IA   MOSUNNY   38  30  73 S17       29.91R
CHICAGO IL     PTSUNNY   36  27  69 SW17G24   29.95S
EAU CLAIRE WI  CLOUDY    32  26  78 SW10      29.77R WCI  24
LA CROSSE WI   CLOUDY    35  28  75 S15       29.81S
$$

  *****  SOME NATIONAL WEATHER *****

CITY           SKY/WX    TMP DP  RH WIND       PRES   REMARKS
LA GUARDIA NY  MOSUNNY   52  28  39 W23G32    29.75S
RALEIGH NC     MOSUNNY   55  35  47 W12G20    30.06S
ATLANTA GA     MOSUNNY   47  35  63 NW9       30.22S
NEW ORLEANS LA MOSUNNY   54  36  50 VRB5      30.28F
OKLAHOMA CITY  CLOUDY    50  25  37 S24G30    29.83R
ALBUQUERQUE NM PTSUNNY   40  10  29 SW8       29.75R
SALT LAKE CITY LGT SNOW  28  25  88 W13       29.65R FOG     WCI  17
LOS ANGELES CA MOSUNNY   58  24  27 N8G25     29.87R
BOISE ID       MOSUNNY   29  22  75 NW13      29.89R WCI  19
SEATTLE WA     MOCLDY    41  38  89 SE3       30.19R
$$

*** WEATHER ACROSS MANITOBA...SASKATCHEWAN AND ONTARIO ***
                ***ONTARIO***

CITY           SKY/WX    TMP DP  RH WIND       PRES   REMARKS
GERALDTON      PTSUNNY   27  23  86 W7        29.54R WCI  19
THUNDER BAY    NOT AVBL
SIOUX LOOKOUT  LGT SNOW  28  27  93 W5        29.55R FOG     WCI  23
TORONTO        CLOUDY    39  32  75 W20G33    29.76R
BIG TROUT LK   LGT SNOW  21  19  93 CALM      29.56R
PICKLE LAKE    FLURRIES  25  23  93 CALM      29.53R
DRYDEN         FLURRIES  28  28 100 W9        29.56R WCI  20
KENORA         LGT SNOW  27  25  93 NW7       29.59R WCI  19
$$
                *** MANITOBA***

CITY           SKY/WX    TMP DP  RH WIND       PRES   REMARKS
BRANDON        CLOUDY    25  21  86 N5        29.77R WCI  19
DAUPHIN        CLOUDY    23  18  80 NW8       29.78R WCI  14
ISLAND LAKE    FLURRIES  19  18  93 NW8       29.63R WCI   9
PILOT MOUND      N/A     23  21  93 NW10        N/A  WCI  12
THE PAS        FLURRIES  10   7  85 NW15G23   29.82R WCI  -6
THOMPSON       NOT AVBL
WINNIPEG       PTSUNNY   25  21  86 NW17      29.72R WCI  11
GILLAM         FLURRIES  18  14  86 CALM      29.67R
$$
                ***SASKATCHEWAN***

CITY           SKY/WX    TMP DP  RH WIND       PRES   REMARKS
ESTEVAN        FLURRIES  23  19  86 NW15G22   29.81R WCI  10
KINDERSLEY     CLOUDY     5   1  85 N7        29.97R WCI  -7
LLOYDMINSTER   FLURRIES   7   3  85 N7        29.94R WCI  -5
PRINCE ALBERT  PTCLDY    -2  -9  71 NW13      29.97R WCI -21
REGINA         CLOUDY    16  12  86 NW16G23   29.87R WCI   0
YORKTON        FLURRIES  19  18  93 NW13      29.80R WCI   7
N. BATTLEFORD  CLOUDY     1  -2  85 NW14      30.00R WCI -17
LA RONGE       NOT AVBL
SASKATOON      NOT AVBL
SWIFT CURRENT  LGT SNOW  12   9  85 NW10      29.90R WCI  -1
$$
NOTE: THESE ARE AUTOMATED STATIONS WITH LIMITED QUALITY CONTROL
      "FAIR" INDICATES FEW OR NO CLOUDS BELOW 12,000 FEET WITH NO
      SIGNIFICANT WEATHER AND/OR OBSTRUCTIONS TO VISIBILITY.
      SKY/WX - SKY CONDITION AND SIGNIFICANT WEATHER.
      TMP - AIR TEMPERATURE.    DP   - DEWPOINT TEMPERATURE.
      RH  - RELATIVE HUMIDITY.  PRES - PRESSURE.
      HX  - HEAT INDEX.         WCI  - WIND CHILL INDEX.
$


USA.gov is the U.S. government's official web portal to all federal, state and local government web resources and services.